Погода Сегян-Кюель

Погода Сегян-Кюель : погода сейчас, прогноз погоды и архив. Всё, что Вы хотите узнать о погоде Сегян-Кюель!

Поиск расширенной информации на нашем сайте:

Другие новости

Новости СМИ2

Главная страница сайта

Новости сайта

02.10.2013

Напоминаем, что на нашем новом сайте вы можете получить высокодетализированные прогнозы погоды по пунктам России, СНГ и мира (включающие важные для авиации метеовеличины, такие как направление и скорость ветра, видимость, явления погоды, количество и форма облачности, нижняя и верхняя граница облачности), а также ознакомиться с разнообразными материалами по авиационной метеорологии и подборкой полезных ссылок на эту тему.

Сайт Метеоцентр.Азия посвящён разработке технологий оптимизации авиаметеорологического обслуживания, включая проектирование и перспективное создание нескольких автоматизированных авиаметеорологических систем:
- система выпуска высокодетальных прогностических карт явлений погоды для нижнего воздушного пространства по России и ближнему зарубежью;
- система верификации прогнозов TAF (выпускаемых синоптиками официальных АМСГ РФ и ближнего зарубежья) и AUTOTAF (выпускаемых сайтом Метеоцентр.Азия) - выявление ошибок, онлайн-сопоставление с фактической погодой METAR, автоматическое внесение коррективов в прогнозы при резком отклонении фактической погоды от прогноза, подсчёт оправдываемости прогнозов по элементам и в целом;
- система обработки, анализа и отображения авиаметеорологической информации для применения провайдерами метеорологической информации.

Рекомендуем: недорогая финская сауна

Погода Сегян-Кюель - сегодня

Время (UTC), дата Ветер
(°,м/с) 
Видим.   Явления Облачность Т
(°С)
Тd
(°С)
f(%) Тe
(°С)
Pmin
(гПа)
dP
(гПа)
Po
(мм)
O2
(г/м3)
Тmin Tmax R s Состояние
почвы
09 26.05.17 180 (Ю) 20000 м    9/8 1000 м кучево-дожд., средняя 
[Cb cap|Ac trans]
+13.1 -5.8 26 +14  999  -0.4  731  282           
12 26.05.17 090 (В) 20000 м    9/9 1000 м кучево-дожд. 
[Cb cap]
+10.9 -5.6 31 +12  999  -0.2  731  284    +15.7       
15 26.05.17 070 (В) 20000 м    10/9 1000 м кучево-дожд., верхняя 
[Cb cap|Cs]
+9 -3.6 41 +10  997.9  -1.2  730  285           
18 26.05.17 080 (В) 10 км  слаб. ливневой дождь  10/10 600 м кучево-дожд. 
[Cb cap]
+6.6 +3.8 82 +6  997.8  -0.4  730  286           
21 26.05.17 210 (ЮЗ) 10 км  слаб. ливневой дождь  10/10 600 м кучево-дожд. 
[Cb cap]
+5.5 +4.8 95 +5  998.1  0.2  730  287           
00 27.05.17 260 (З) 20000 м  слаб. ливневой дождь  10/10 600 м кучево-дожд. 
[Cb cap]
+7.7 +3.8 76 +7  999  1.2  731  286  +5.6      мокрая 
03 27.05.17 280 (З) 20000 м  в посл. час ливневой дождь  9/9 600 м кучево-дожд. 
[Cb cap]
+8.3 -2.3 47 +8  1000.5  1.5  732  286           
06 27.05.17 280 (З) 20000 м  {ливн. осадки}  9/9 1000 м кучево-дожд. 
[Cb cap]
+8.9 +0.2 54 +7  1002.1  1.7  733  286           
09 27.05.17 270 (З) 20000 м    8/3 1000 м средняя, верхняя 
[Sc diur, vesp|Ac trans|Ci fib]
+10.5 +0.2 49 +11  1003.4  1.2  734  285           
15 27.05.17 тихо ()   20000 м    ясно 
+2.1 -3.4 67 +2  1005.4  0.2  735  294           
18 27.05.17 190 (Ю) 20000 м    3/0 верхняя 
[Ci fib]
-1.5 -2.7 92 -1  1006.5  0.7  735  298           
21 27.05.17 тихо ()   20000 м    1/0 верхняя 
[Ci fib]
+5 -2.6 58 +5  1006.1  0.3  736  291           
03 28.05.17 020 (С) 20000 м    3/0 средняя, верхняя 
[Ac trans|Ci fib]
+15 -5 25 +16  1004.8  -0.8  735  281           
06 28.05.17 030 (СВ) 20000 м    3/0 средняя, верхняя 
[Ac lent|Ci fib]
+17.2 -3.8 24 +18  1003.1  -1.5  734  279           
09 28.05.17 020 (С) 20000 м    9/0 верхняя 
[Ci fib]
+17.6 -3.4 24 +19  1002.6  -0.5  734  278           
15 28.05.17 360 (С) 20000 м    10/0 средняя, верхняя 
[Ac trans|Ci fib]
+11.2 -5.5 31 +10  1003.8  -0.5  734  285           
18 28.05.17 010 (С) 20000 м    10/0 средняя, верхняя 
[Ac trans|Ci fib]
+10.6 -5.3 32 +9  1003.7  -0.2  734  285           
21 28.05.17 360 (С) 20000 м    10/0 средняя, верхняя 
[Ac trans|Ci fib]
+11.1 -2.2 39 +10  1002.9  -0.7  734  284           
03 29.05.17 360 (С) 20000 м    10/3 1000 м средняя 
[Sc|As trans]
+15.7 -0.7 33 +16  1001.6  -0.2  733  279           
06 29.05.17 080 (В) 20000 м    10/9 1000 м кучево-дожд., средняя 
[Cb cap|As op]
+16.9 +0.3 32 +18  1001.8  0.2  733  278           
09 29.05.17 090 (В) 20000 м    10/5 1000 м кучево-дожд., средняя 
[Cb cap|As op]
+12.9 +2.7 50 +13  1004.5  2.4  735  282           
15 29.05.17 020 (С) 20000 м  слаб. ливневой дождь  10/10 1000 м кучево-дожд. 
[Cb cap]
+9.2 +5.5 78 +10  1005.5  -0.2  735  286           
18 29.05.17 020 (С) 20000 м  {ливн. осадки}  10/8 1000 м кучево-дожд., средняя 
[Cb cap|As op]
+8.6 +6.4 86 +9  1005.6  0.1  736  286           
21 29.05.17 360 (С) 20000 м    10/10 1000 м кучево-дожд. 
[Cb cap]
+8.8 +6 83 +9  1006.2  0.6  736  286           
03 30.05.17 030 (СВ) 20000 м    9/9 1000 м кучево-дожд. 
[Cb cap]
+12.9 +4.1 55 +13  1006.9  737  283           
Время (UTC), дата Ветер
(°,м/с) 
Видим.   Явления Облачность Т
(°С)
Тd
(°С)
f(%) Тe
(°С)
Pmin
(гПа)
dP
(гПа)
Po
(мм)
O2
(г/м3)
Тmin Tmax R s Состояние
почвы

Для получения пояснительной информации подведите курсор к названию столбца.

ПОГОДА Сегян-Кюель - архив

Всё, что Вы хотите узнать о погоде Сегян-Кюель - удобно и подробно!

Выберите нужную дату (начиная с 1 января 2015* года) и нажмите кнопку "Найти".
Будут отображены архивные сводки погоды по пункту Сегян-Кюель, начиная с указанной даты.


Отображать данные в формате CSV (для использования в таблицах Excel)


Внимание! Наш архив погоды предназначен исключительно для личного некоммерческого использования в познавательных целях. Если Вам необходимы официальные справки о состоянии погоды (для производственных, юридических, коммерческих и т.п. целей), обращайтесь в органы Росгидромета.

*Примечание: данная дата относится к архиву по метеостанциям СССР (Россия, СНГ, Балтия).
Архив по метеостанциям Зарубежной Европы и Азии (кроме Китая) хранится 10 дней, по другим регионам земного шара (Китай, Африка, Америка, Австралия, Океания) - 1 день.

Сегян-Кюель - район местоположения метеостанции


Название, широта, долгота, высота метеостанции:
Сегян-Кюель 64.00°ш. 130.30°д. 211 м над ур. моря [Российская Федерация]

Дополнительная информация

В oтличие oт бoльшинства пoгoдных сайтoв мы публикуем пoдрoбную метеoинфoрмацию в детальнoм прoфессиoнальнoм фoрмате.

Характеристики температуры и влажнoсти вoздуха измеряются на высoте 2 м в тени вдали oт зданий и деревьев.
Скoрoсть ветра измеряется на высoте 10 м (на урoвне рoста челoвека скoрoсть ветра ниже в 1.5-2 раза). Если метеoстанция нахoдится в гoрoде или в лесу, тo скoрoсть ветра занижена на 2-4 м/с пo сравнению с oткрытым местoм. Скoрoсть ветра над акватoриями крупных рек и oзёр, а также на вершинах хoлмoв на 2-5 м/с выше, чем в oбычных услoвиях.
Атмoсфернoе давление в разных тoчках местнoсти мoжет значительнo oтличаться oт давления на метеoстанции, в зависимoсти oт услoвий рельефа (при пoдъёме на 10 м давление пoнижается примернo на 1 мм рт.ст.).